Location: Acheville
(50.3840°N, 2.8827°E)
Time: 19:27:55
(UTC+00:00)

Cosmos 2369 - Pass Details

Date: 24 October 2021
Orbit: 838 x 857 km, 71.0° (Epoch: 07 December)

Event Time Altitude Azimuth Distance (km) Brightness Sun altitude
Rises 16:58:34 0° 210° (SSW) 3,385 7.6 -3.9°
Reaches altitude 10° 17:01:00 10° 211° (SSW) 2,456 6.8 -4.3°
Maximum altitude 17:06:39 83° 299° (WNW) 858 3.9 -5.1°
Drops below altitude 10° 17:12:23 10° 28° (NNE) 2,485 5.8 -6.0°
Sets 17:14:51 0° 30° (NNE) 3,427 6.5 -6.4°
